This is the latest recevied weather packets stored in our database for station/object XE2G-31. If no packets are shown the sender has not sent any weather packets the latest 10 day(s).
| Time | Temp. | Humidity | Pressure | Rain* | Wind** | Luminosity | Snow |
|---|---|---|---|---|---|---|---|
| 1778139296 | 25.56° C | 60% | 871 hPa | - | - | - | - |
| 1778138348 | 25.56° C | 63% | 871 hPa | - | - | - | - |
| 1778137402 | 25.56° C | 64% | 871 hPa | - | - | - | - |
| 1778136455 | 25° C | 63% | 871 hPa | - | - | - | - |
| 1778135508 | 25.56° C | 61% | 871 hPa | - | - | - | - |
| 1778134561 | 25.56° C | 60% | 871 hPa | - | - | - | - |
| 1778133614 | 25.56° C | 61% | 872 hPa | - | - | - | - |
| 1778132668 | 25.56° C | 58% | 872 hPa | - | - | - | - |
| 1778131721 | 25.56° C | 55% | 871 hPa | - | - | - | - |
| 1778130774 | 25.56° C | 53% | 871 hPa | - | - | - | - |
| 1778129827 | 25.56° C | 53% | 872 hPa | - | - | - | - |
| 1778128880 | 25.56° C | 55% | 872 hPa | - | - | - | - |
| 1778127933 | 25.56° C | 55% | 871 hPa | - | - | - | - |
| 1778126986 | 25.56° C | 53% | 871 hPa | - | - | - | - |
| 1778126040 | 26.11° C | 52% | 871 hPa | - | - | - | - |
| 1778125093 | 26.11° C | 51% | 871 hPa | - | - | - | - |
| 1778124146 | 26.11° C | 50% | 871 hPa | - | - | - | - |
| 1778123199 | 26.11° C | 43% | 870 hPa | - | - | - | - |
| 1778122252 | 26.67° C | 41% | 870 hPa | - | - | - | - |
| 1778121305 | 26.67° C | 39% | 870 hPa | - | - | - | - |
| 1778120359 | 27.22° C | 37% | 869 hPa | - | - | - | - |
| 1778119412 | 27.22° C | 32% | 869 hPa | - | - | - | - |
| 1778118465 | 27.78° C | 30% | 869 hPa | - | - | - | - |
| 1778117518 | 27.78° C | 33% | 869 hPa | - | - | - | - |
| 1778116571 | 27.78° C | 34% | 869 hPa | - | - | - | - |
* Rain since midnight (hover to see other rain measurements)
** Current wind speed in m/s (hover to see current wind gust speed)